EW1898 Weather Reports


time (UTC)temp
F
wind
direction
speed
knots
gust
knots
rain 1hr
in
rain 24hr
in
rain mn
in
humidity
%
barometer
mb
20260503040025 44 303 0.9 5.2 0.00 0.16 0.00 97 1010.3
20260503034513 44 293 0.0 0.9 0.00 0.16 0.16 97 1010.4
20260503033012 45 293 0.0 2.6 0.00 0.16 0.16 97 1010.6
20260503031512 44 265 0.0 0.9 0.00 0.16 0.16 97 1010.6
20260503030010 44 265 0.0 0.0 0.00 0.16 0.16 96 1010.4
20260503024511 45 265 0.0 0.0 0.00 0.16 0.16 96 1010.4
20260503023011 45 265 0.0 0.0 0.00 0.16 0.16 96 1010.4
20260503021515 45 265 0.0 0.0 0.00 0.16 0.16 96 1010.7
20260503020010 46 265 0.0 0.0 0.00 0.16 0.16 96 1010.6
20260503014509 46 265 0.0 0.0 0.00 0.16 0.16 95 1010.7
20260503013008 46 265 0.0 0.0 0.00 0.16 0.16 95 1010.7
20260503011522 46 265 0.0 0.0 0.00 0.16 0.16 95 1010.7
20260503010009 47 265 0.0 0.0 0.00 0.16 0.16 94 1010.5
20260503004507 47 265 0.0 0.0 0.00 0.16 0.16 94 1010.6
20260503003007 47 282 0.0 0.9 0.00 0.16 0.16 95 1010.5
20260503001506 48 282 0.0 1.7 0.00 0.16 0.16 96 1010.5
20260503000009 48 286 0.0 1.7 0.00 0.16 0.16 96 1010.4
20260502234516 48 297 0.0 0.0 0.00 0.16 0.16 95 1010.4
20260502233005 49 298 0.0 0.0 0.00 0.16 0.16 95 1010.3
20260502231504 49 297 0.0 0.0 0.00 0.16 0.16 95 1010.0
20260502230003 49 298 0.0 0.0 0.00 0.16 0.16 95 1010.0
20260502224502 49 298 0.0 0.9 0.00 0.16 0.16 95 1009.8
20260502223005 48 298 0.0 0.0 0.01 0.16 0.16 95 1009.6
20260502221501 48 298 0.0 0.0 0.02 0.16 0.16 94 1009.7
20260502220144 48 298 0.0 0.0 0.05 0.16 0.16 94 1009.8
20260502214603 48 298 0.0 0.0 0.05 0.16 0.16 93 1009.9
20260502213106 48 297 0.0 0.9 0.04 0.15 0.15 92 1010.0
20260502211559 49 297 0.0 2.6 0.03 0.14 0.14 89 1010.1
20260502210106 50 298 0.0 0.9 0.00 0.11 0.11 84 1009.9
20260502204609 50 299 0.9 3.5 0.00 0.11 0.11 82 1009.7
20260502203111 51 295 0.0 1.7 0.00 0.11 0.11 81 1009.7
20260502201557 51 290 0.0 1.7 0.00 0.11 0.11 82 1009.7
20260502200055 51 297 0.0 3.5 0.00 0.11 0.11 78 1010.0
20260502194557 52 301 1.7 6.1 0.00 0.11 0.11 77 1009.8
20260502193054 55 302 3.5 8.7 0.00 0.11 0.11 67 1009.8
20260502191608 56 284 0.0 2.6 0.00 0.11 0.11 62 1009.8
20260502190104 57 47 0.0 2.6 0.00 0.11 0.11 62 1009.8
20260502184551 58 203 0.0 3.5 0.00 0.11 0.11 58 1010.0
20260502183058 57 213 0.0 3.5 0.00 0.11 0.11 61 1010.1
20260502181547 58 260 0.9 3.5 0.00 0.11 0.11 66 1010.2
20260502163049 53 99 0.0 2.6 0.00 0.11 0.11 82 1011.1
20260502161528 51 298 0.9 4.3 0.00 0.11 0.11 83 1011.4
20260502160128 50 276 0.0 0.9 0.00 0.11 0.11 87 1011.6
20260502151518 48 299 0.0 2.6 0.00 0.11 0.11 91 1011.5
20260502123011 43 302 0.0 0.9 0.04 0.06 0.06 94 1012.5
20260502121509 44 302 0.0 0.0 0.04 0.05 0.05 94 1012.3
20260502114508 44 303 0.0 1.7 0.02 0.03 0.03 94 1012.6
20260502113007 44 292 0.0 0.9 0.01 0.02 0.02 92 1012.7
20260502111502 44 279 0.0 0.9 0.00 0.01 0.01 92 1011.7
20260502110003 44 279 0.0 0.9 0.00 0.01 0.01 91 1011.3
20260502104500 44 279 0.0 0.9 0.01 0.01 0.01 90 1011.4
20260502103102 44 279 0.0 0.0 0.01 0.01 0.01 89 1011.2
20260502101605 44 279 0.0 0.9 0.01 0.01 0.01 87 1011.4
20260502070049 46 295 0.0 1.7 0.00 0.00 0.00 74 1011.1
20260502064545 46 253 0.0 0.9 0.00 0.00 0.00 72 1011.4
20260502063041 46 253 0.0 0.9 0.00 0.00 0.00 72 1011.1
20260502061537 46 253 0.0 0.9 0.00 0.00 0.00 72 1011.0
20260502060033 47 253 0.0 0.9 0.00 0.00 0.00 67 1011.1
20260502054530 48 253 0.0 0.9 0.00 0.00 0.00 61 1011.0
20260502053029 48 253 0.0 0.9 0.00 0.00 0.00 59 1011.1
20260502051530 48 253 0.0 1.7 0.00 0.00 0.00 58 1011.1
20260502050032 48 254 0.0 0.9 0.00 0.00 0.00 58 1011.1
20260502044523 49 254 0.0 0.0 0.00 0.00 0.00 59 1011.4
20260502043023 49 254 0.0 0.0 0.00 0.00 0.00 59 1011.6
20260502041521 49 295 0.0 0.9 0.00 0.00 0.00 61 1011.4